Wind_Speed
33 34 35 38 39 37 40 41 40 38 36 36 37 40 40 36 34 31 29 27 25 24 24 24 26 27 28 28 29 29 30 31 31 31 31 33 34 35 36 38 39 41 42 43 44 45 47 49 51 52 54 56 57 58 58 57 56 54 51 49 48 47 47 47 47 48 49 50 50 51 52 52 52 52 53 53 54 55 56 58 60 62 64 65 67 69 71 74
33 35 36 38 40 39 40 40 39 39 39 38 37 39 38 34 31 29 27 25 24 24 25 26 27 27 28 28 29 29 30 31 31 32 33 34 35 36 37 38 39 40 41 43 45 47 49 50 52 54 55 56 56 55 53 50 48 45 43 43 43 43 44 44 44 45 45 46 46 47 49 50 51 52 52 53 54 55 56 57 59 60 62 64 66 68 70 72
34 36 38 39 40 40 40 40 40 40 40 40 39 38 36 33 31 29 27 25 25 26 26 27 27 28 28 28 29 30 31 32 32 33 34 34 35 36 37 38 39 41 43 44 46 48 50 52 53 54 54 53 51 48 45 42 40 39 39 40 40 40 41 42 42 42 43 45 45 46 49 51 53 54 55 56 57 58 58 60 61 63 64 66 68 70 72 74
34 36 39 39 40 40 40 40 40 40 40 41 40 37 34 32 31 28 27 26 26 27 27 28 28 28 28 29 30 31 32 33 33 33 33 34 35 36 37 39 41 42 44 46 48 50 52 52 52 51 49 47 44 41 39 37 37 37 37 37 38 39 40 42 42 42 44 46 47 48 50 53 55 56 57 58 59 60 62 63 64 66 67 69 72 74 77 79
34 37 38 39 40 40 40 40 40 41 40 40 39 37 33 31 29 27 27 26 27 27 28 28 28 28 28 29 31 32 33 33 32 33 33 35 36 38 39 41 43 44 46 48 50 51 52 51 49 46 42 39 36 35 35 36 36 37 37 36 37 38 39 42 44 44 45 47 49 50 52 53 55 56 58 59 61 62 63 64 65 67 70 73 76 79 81 84
35 37 38 38 39 39 39 40 40 40 40 40 38 36 34 31 30 29 28 28 28 28 28 29 28 28 28 29 30 31 32 32 33 34 35 37 38 40 41 43 45 46 48 49 50 50 49 46 43 38 34 33 32 33 33 34 35 35 36 37 37 39 40 42 44 45 46 48 50 51 53 54 55 56 58 59 60 61 63 64 66 68 72 75 78 81 83 85
36 37 38 37 38 38 39 39 39 39 39 39 37 36 34 32 31 30 29 29 29 29 29 29 28 28 29 30 31 31 32 34 35 37 38 39 40 41 43 44 46 47 48 49 48 45 42 39 35 32 30 31 31 32 32 32 33 34 36 38 38 39 40 41 44 46 47 48 50 52 53 54 55 55 57 58 60 61 63 65 67 70 73 75 78 80 83 85
35 37 38 38 38 38 39 40 40 39 39 38 37 36 34 33 33 31 30 30 30 30 29 28 28 29 30 31 32 33 34 35 37 37 38 40 41 42 43 44 46 47 47 45 42 39 36 33 30 28 28 29 30 30 31 32 33 35 37 39 40 40 41 42 43 46 48 49 50 52 52 53 53 54 56 58 59 62 64 66 68 70 73 75 77 79 82 84
30 35 38 39 39 39 39 41 41 40 40 39 38 36 36 35 33 32 31 30 30 29 28 28 28 29 30 30 32 33 34 36 37 37 38 40 40 42 43 44 45 44 42 40 37 33 31 29 27 27 27 27 28 28 30 32 33 35 37 40 42 42 43 44 44 47 48 48 49 50 51 52 52 53 55 57 59 62 64 66 68 70 72 75 77 79 81 83
25 31 36 38 39 40 40 41 41 41 41 40 39 38 37 35 33 32 31 31 30 29 28 27 28 29 29 29 31 33 35 36 37 38 39 39 40 41 42 43 42 40 37 34 31 28 27 27 27 26 26 26 27 29 31 33 34 35 38 40 43 44 45 46 46 47 49 48 48 49 50 51 52 53 55 57 59 62 64 66 68 70 72 74 76 78 81 83
22 27 34 36 37 40 42 42 41 42 41 40 39 39 38 36 34 33 32 31 30 29 28 28 29 29 28 29 31 32 33 35 36 37 38 39 40 40 40 39 37 35 32 28 26 25 25 25 25 25 26 27 29 31 33 34 35 36 38 40 42 44 46 47 46 46 48 50 50 50 51 52 53 54 56 58 61 64 65 66 68 69 71 73 76 78 80 82
21 26 32 35 35 38 41 43 43 42 41 40 40 39 38 36 34 33 33 32 30 29 28 27 27 26 27 28 29 30 32 34 36 37 38 39 39 38 37 35 33 30 26 24 23 23 24 24 24 25 27 29 31 33 33 34 35 37 38 39 41 43 45 46 46 46 47 50 51 51 52 53 54 55 58 61 63 66 67 67 68 70 71 73 75 78 80 82
21 25 31 34 34 36 38 41 43 43 42 41 40 38 37 35 35 34 33 31 30 29 28 26 25 25 27 28 29 31 33 36 37 38 38 38 37 35 33 31 28 25 23 22 22 22 23 23 24 27 29 30 32 33 33 34 36 38 39 40 42 43 44 46 47 47 47 48 51 52 53 55 57 58 60 63 65 68 69 69 70 71 73 74 76 78 80 82
20 24 31 34 34 35 35 37 41 44 43 41 39 38 37 36 35 34 33 31 31 30 29 28 28 28 29 31 33 35 36 37 37 37 37 36 34 31 29 26 24 22 21 20 20 21 21 23 25 28 30 31 32 33 33 36 37 39 39 40 42 43 44 46 48 48 48 49 51 53 54 56 58 59 61 64 67 69 71 72 73 73 75 76 77 79 80 82
21 25 33 35 34 34 33 33 36 40 40 38 37 37 36 35 34 33 32 31 30 30 29 29 29 30 32 34 35 36 37 36 36 37 35 32 29 27 25 22 21 20 20 19 20 20 21 23 26 28 30 31 31 32 35 37 38 39 39 40 41 43 45 46 49 50 50 50 51 53 55 56 59 60 62 65 68 70 72 74 75 75 76 78 79 79 81 82
23 28 33 34 33 33 31 31 33 36 36 35 35 34 32 33 33 31 30 30 29 29 29 29 29 30 31 32 33 34 34 35 36 34 31 28 26 24 21 19 19 19 19 20 20 21 23 25 27 29 30 29 29 33 36 38 39 40 40 40 40 43 45 47 49 51 51 53 54 55 56 57 59 61 63 66 69 71 73 76 77 78 78 79 80 81 82 84
25 30 32 31 32 32 30 28 28 29 30 31 30 28 27 29 29 26 25 26 27 27 27 27 27 28 29 30 32 33 34 36 34 31 27 25 23 20 18 17 17 18 19 20 21 23 25 26 29 30 29 29 32 35 36 38 39 40 41 42 42 43 45 47 49 52 53 54 56 57 58 59 60 63 65 68 70 72 75 76 79 80 80 80 81 82 84 86
27 32 31 30 30 30 29 26 23 23 23 23 24 24 25 26 24 22 21 21 22 23 23 24 26 27 29 31 32 34 36 34 30 27 25 22 20 18 16 16 17 18 19 20 21 23 25 27 29 29 31 33 35 36 36 37 38 39 41 43 44 44 45 47 49 52 54 54 56 58 58 59 61 64 66 69 71 73 75 78 79 81 82 83 83 84 86 88
30 33 31 30 29 28 29 28 27 27 25 23 23 24 25 25 23 22 21 20 21 23 24 26 27 29 31 33 34 35 34 30 27 25 22 19 17 16 16 16 18 18 19 20 22 25 27 29 29 30 31 33 33 34 34 36 38 39 41 43 45 45 45 47 49 52 54 55 57 58 60 62 63 65 67 69 72 74 76 78 80 81 84 85 86 86 88 90
34 35 32 30 30 30 31 31 31 31 29 27 26 28 27 26 25 25 24 24 24 26 27 28 30 32 33 34 35 33 30 27 25 22 19 17 16 15 16 17 18 19 19 21 24 27 29 29 29 30 30 30 31 33 35 37 39 40 42 43 46 47 47 49 51 53 55 56 58 60 62 66 67 67 69 70 73 75 77 79 80 82 85 86 87 88 89 92
37 37 34 33 33 33 33 33 32 32 31 31 31 31 28 26 25 25 26 26 27 28 29 30 32 33 33 34 32 29 26 24 22 19 17 16 15 16 17 17 18 20 21 23 26 28 28 28 28 29 30 31 32 34 36 38 39 41 44 45 46 49 51 51 51 54 56 58 60 63 65 68 70 70 70 72 74 77 78 80 81 84 86 87 88 90 91 92
40 40 37 37 38 36 34 33 33 32 32 32 32 31 28 26 26 27 27 28 29 29 30 31 32 32 32 31 28 25 24 22 19 17 17 16 15 16 17 18 19 21 23 24 26 26 26 27 28 30 31 32 34 35 37 38 40 42 45 46 48 50 52 54 54 55 58 60 62 66 68 68 70 72 72 73 75 77 79 81 83 85 87 88 89 91 91 92
40 40 38 39 39 37 35 33 32 30 30 30 29 28 26 27 27 28 28 28 28 29 30 30 31 31 29 27 25 23 21 19 17 17 16 16 16 17 18 20 21 22 23 24 25 25 26 28 29 31 32 34 36 37 38 39 41 43 45 47 49 50 51 54 57 58 61 63 64 67 69 69 70 72 73 74 76 78 80 82 85 87 88 90 91 92 91 92
39 40 40 40 39 37 35 32 29 27 27 26 26 25 27 28 28 27 27 27 28 29 29 30 29 28 26 24 23 21 18 17 16 16 16 16 17 18 19 20 21 22 23 24 25 25 26 28 30 32 34 35 37 38 40 41 42 44 45 47 50 52 53 54 57 60 63 66 66 66 68 69 70 72 74 75 76 78 80 83 86 88 90 92 94 94 92 93
35 35 37 38 37 35 33 30 27 27 28 27 25 26 28 29 28 27 27 27 28 28 28 27 26 24 23 23 21 18 17 16 16 16 16 17 18 19 20 21 22 23 23 24 25 25 27 29 31 33 35 36 38 39 41 43 44 45 47 48 50 53 56 57 59 61 64 67 68 67 67 68 69 71 73 75 77 78 81 84 87 89 91 93 95 95 95 95
30 29 29 30 32 32 31 30 30 31 31 28 25 25 29 31 29 28 28 27 26 26 25 24 23 23 22 21 19 17 16 16 16 16 17 18 19 20 21 22 23 24 24 25 25 26 28 30 32 34 35 37 38 40 42 44 46 47 48 50 52 54 57 60 62 62 64 67 70 70 69 68 68 70 73 75 77 78 81 84 87 89 90 93 96 97 97 98
30 29 29 30 30 30 31 33 34 34 31 25 22 23 27 29 29 27 25 24 24 23 22 22 22 22 20 18 17 16 16 16 16 17 18 19 20 20 21 23 24 25 26 26 26 27 29 31 33 35 36 37 39 41 43 46 48 49 50 52 54 57 59 62 64 65 65 67 71 72 71 71 70 71 73 76 78 79 80 83 86 89 90 93 96 99 99 99
33 33 33 32 32 32 33 34 34 32 27 23 21 21 23 24 24 23 22 22 21 21 20 21 21 20 18 17 17 16 16 16 17 18 19 19 20 21 22 23 24 26 26 26 27 29 31 33 35 36 36 37 39 41 43 46 48 50 52 54 55 57 59 62 65 67 67 68 71 73 73 73 74 74 75 76 78 79 80 82 86 89 91 94 97 99 99 99
36 36 35 34 34 34 35 34 32 29 24 20 19 20 21 21 21 21 20 19 20 20 20 20 19 18 17 17 16 16 17 17 18 19 19 20 21 22 23 24 25 26 26 27 29 31 33 34 35 36 36 38 40 43 44 46 48 50 53 55 57 58 59 61 64 67 69 69 70 74 75 74 75 77 77 77 79 80 81 83 87 90 92 95 97 99 99 99
39 39 38 37 35 35 35 34 31 26 21 19 20 21 21 20 20 19 18 18 19 19 18 18 18 17 17 16 16 17 17 19 19 20 20 21 22 23 24 25 25 27 28 30 32 33 35 36 36 36 37 39 41 44 46 47 48 50 52 54 56 58 59 60 63 66 70 71 71 74 77 77 77 78 79 79 80 81 82 84 87 89 92 94 96 97 98 99
42 42 42 40 38 36 33 30 26 22 20 20 22 22 21 20 19 18 18 18 18 18 17 17 17 17 17 16 17 18 19 20 21 21 21 22 23 24 24 25 27 29 30 32 34 35 36 37 37 38 39 41 43 45 48 49 50 51 52 54 56 58 59 59 61 65 70 73 73 74 76 79 79 80 81 81 81 82 82 84 86 89 90 92 93 95 97 99
43 42 41 40 38 35 30 26 22 21 22 23 22 22 21 19 18 18 18 18 17 17 17 17 18 17 17 17 18 19 21 21 22 22 22 23 24 25 26 27 28 30 31 33 35 37 38 38 39 40 42 44 45 47 49 51 51 52 53 55 56 57 58 58 59 63 70 75 76 75 75 77 79 81 82 83 82 82 83 83 85 87 89 91 92 93 96 99
43 42 40 39 35 31 27 24 22 23 23 23 22 22 21 19 19 18 18 17 17 17 17 18 18 18 17 18 19 21 22 23 23 23 23 24 25 26 28 29 30 31 33 34 35 37 38 40 41 42 44 46 47 48 50 51 52 54 55 56 57 58 58 58 58 61 68 74 76 76 75 76 78 80 82 83 83 83 82 82 83 86 88 89 90 92 96 100
43 42 40 37 32 27 26 25 24 24 23 22 22 21 20 20 19 19 18 17 17 17 18 18 18 18 18 19 20 22 23 24 24 24 25 25 27 28 29 30 32 33 34 35 36 37 39 41 43 45 47 48 50 50 51 52 53 55 56 58 59 61 61 62 63 63 67 72 75 75 74 75 77 79 81 83 84 84 82 81 82 85 87 89 90 92 96 100
42 40 38 34 29 27 27 26 24 23 22 22 21 21 20 20 19 19 18 18 18 18 18 19 19 19 19 20 21 23 24 24 25 25 26 27 28 29 31 32 33 34 34 35 37 39 41 43 45 47 49 51 52 53 53 55 55 56 58 60 61 62 63 64 66 67 68 71 74 74 73 74 77 79 81 83 83 84 83 81 81 84 86 89 91 93 96 99
37 35 33 30 28 28 28 25 23 22 22 22 22 22 21 21 20 20 19 18 19 19 19 20 20 20 20 21 23 24 25 25 26 27 28 29 30 31 32 33 34 35 35 36 38 41 43 45 48 50 52 53 55 55 56 57 58 59 60 61 63 64 65 65 67 68 69 71 75 76 73 72 75 78 80 82 83 84 84 81 81 84 86 89 91 93 96 98
31 31 30 29 29 29 27 24 22 23 22 22 22 22 22 21 21 20 19 19 19 20 20 21 21 21 22 23 24 25 26 26 27 28 29 31 32 33 34 34 35 36 37 38 39 42 44 47 50 52 53 55 57 58 59 60 61 62 63 64 65 66 67 68 69 69 68 69 73 77 76 73 75 77 79 81 82 84 85 82 81 83 86 89 91 93 95 98
30 30 30 30 29 28 25 23 22 22 22 22 23 23 22 22 21 20 20 20 20 20 21 22 23 23 23 24 25 26 27 28 29 30 31 32 33 34 35 36 37 38 39 40 42 44 47 49 52 54 55 56 58 59 60 62 64 66 66 67 67 68 69 72 73 72 71 70 71 76 77 75 75 78 79 81 82 84 85 83 81 83 86 89 91 93 96 98
29 30 30 29 27 25 23 23 22 22 22 23 23 23 23 22 21 21 20 21 21 21 22 23 24 25 25 26 27 27 28 29 30 32 33 34 35 36 37 38 39 40 42 43 44 47 49 51 52 54 56 56 58 60 61 63 66 67 68 68 69 69 70 72 76 76 75 74 73 76 77 76 76 79 80 82 82 83 85 84 82 82 85 89 91 93 96 98
28 28 27 26 24 24 23 23 22 23 24 25 24 24 24 23 22 21 21 21 21 22 23 24 25 26 27 28 29 29 30 31 32 34 35 36 37 38 40 40 41 42 44 45 47 49 51 52 53 55 57 58 58 60 62 64 67 68 69 69 70 70 71 72 76 79 78 77 76 78 80 78 78 80 81 82 82 83 84 83 82 82 85 88 91 93 95 98
26 25 24 24 25 25 25 24 24 25 25 26 25 25 24 23 23 22 22 22 22 23 24 25 27 28 29 30 31 32 33 34 35 36 37 38 40 41 42 43 44 45 47 48 49 50 52 54 55 55 57 59 59 61 63 65 67 69 70 71 71 72 73 74 76 79 80 79 78 80 82 81 79 80 81 82 82 82 83 83 82 82 85 88 90 92 95 98
25 24 25 26 27 26 25 24 25 26 27 27 26 25 25 24 23 23 23 23 23 24 25 26 28 30 31 32 34 34 35 36 37 38 39 41 42 43 44 46 47 48 49 50 51 52 53 54 56 56 58 61 62 63 65 66 67 69 71 72 73 74 75 76 77 79 81 82 80 79 82 82 80 80 82 81 81 82 83 83 83 82 85 88 90 92 94 97
25 26 27 27 27 25 25 25 27 28 28 27 27 26 25 24 24 24 23 23 24 25 26 27 29 31 32 34 35 36 38 38 39 40 41 42 43 44 45 46 48 49 50 51 52 53 54 54 56 57 59 63 65 65 66 68 68 70 72 74 75 76 76 77 78 79 81 84 83 80 80 83 83 82 82 81 81 83 83 83 83 83 84 87 89 91 94 97
27 28 28 27 26 25 26 27 28 29 28 28 27 26 25 25 24 24 24 24 25 26 27 28 30 31 33 35 36 38 39 40 41 42 43 44 44 45 46 47 49 50 51 53 54 55 56 56 58 59 59 60 63 65 66 68 69 70 73 75 77 78 78 78 79 79 81 84 85 81 79 82 85 85 84 82 82 82 83 83 83 82 83 86 89 91 93 96
29 29 27 26 26 26 28 29 29 29 29 28 27 26 26 26 25 25 25 25 26 27 28 29 31 32 34 36 37 39 40 41 42 43 44 45 46 47 48 49 51 52 53 54 55 57 59 60 61 64 63 62 64 66 66 68 70 73 75 77 79 81 81 81 81 81 81 83 86 84 79 79 83 85 84 83 82 81 82 82 82 82 83 85 88 90 92 95
30 28 27 26 27 28 30 30 30 30 29 28 27 27 27 27 27 26 26 27 28 28 29 31 32 34 35 37 38 39 41 42 43 44 45 46 48 49 50 51 53 54 54 56 57 59 61 63 64 67 68 67 69 72 72 73 74 76 78 79 81 82 83 83 83 83 83 83 84 86 82 78 79 81 81 80 80 80 80 81 81 81 82 85 88 90 92 94
29 28 27 28 29 30 31 31 30 29 29 28 28 28 28 28 28 28 28 29 29 30 31 32 34 35 36 37 39 40 41 43 44 45 46 48 49 50 52 53 54 55 56 58 59 60 62 64 66 70 73 72 72 75 77 77 78 78 79 80 82 83 85 85 85 85 85 84 82 83 85 83 80 80 80 79 78 78 78 79 80 81 82 84 87 89 92 94
28 28 29 30 31 31 31 30 30 29 29 28 28 29 29 29 29 29 30 31 32 32 33 34 35 36 37 38 40 41 42 43 44 46 47 49 50 51 53 55 56 58 59 60 62 63 64 67 68 71 75 76 75 76 79 80 80 81 81 81 82 83 85 86 86 85 85 85 83 82 84 85 82 80 80 79 78 77 77 78 79 80 82 84 87 89 92 94
29 30 31 31 31 31 31 30 29 29 29 29 29 30 30 30 30 31 32 33 33 34 35 36 37 38 39 40 41 43 44 45 46 47 49 50 52 53 55 57 59 60 62 63 65 66 67 69 70 71 75 78 77 77 80 81 81 82 82 82 82 83 84 86 86 85 84 85 85 83 82 83 82 80 80 80 78 77 76 76 78 80 82 85 87 89 92 95
30 31 31 30 30 31 30 30 29 29 29 30 30 31 31 31 32 33 34 35 35 36 37 38 39 40 41 42 44 45 46 47 49 50 52 53 55 56 58 60 62 64 66 67 68 70 70 70 71 70 72 76 78 78 80 81 81 81 82 82 82 83 84 86 87 86 84 84 85 84 82 81 80 79 80 79 77 76 75 75 77 80 83 85 87 90 93 96
29 30 29 29 30 30 30 30 30 29 30 30 31 32 32 33 34 35 36 37 37 38 40 40 41 43 44 45 46 48 49 50 52 53 55 56 58 60 61 64 66 67 69 70 70 71 71 71 71 70 70 74 76 76 78 81 82 81 82 82 83 83 84 86 88 87 84 84 85 85 83 81 80 79 78 77 75 74 74 74 76 80 83 86 88 91 94 97
28 29 29 29 29 29 29 29 30 30 31 32 32 33 33 34 35 36 37 39 39 40 42 43 44 45 46 47 49 50 51 53 54 56 58 60 61 63 65 66 68 69 70 71 70 71 71 71 71 70 69 71 75 75 76 80 82 81 81 81 82 82 82 84 88 88 85 85 86 86 85 84 83 80 74 70 70 72 72 74 77 80 83 87 90 93 95 97
Wind_Direction
175 176 179 181 180 182 189 196 198 199 201 205 213 218 219 222 224 227 229 231 233 235 236 239 242 246 249 253 257 261 264 267 270 272 275 277 279 281 282 284 285 286 288 289 291 292 292 293 294 295 297 297 298 298 299 300 299 300 300 301 304 307 309 311 312 312 311 311 310 310 309 309 308 307 305 304 303 303 303 302 302 301 300 299 298 298 297 295
179 179 181 184 182 184 192 196 197 200 202 205 213 217 218 220 223 225 227 229 231 233 236 240 245 249 253 257 261 265 268 271 274 277 279 281 282 283 285 286 287 288 290 291 292 293 294 295 297 299 300 301 301 301 301 301 301 303 307 310 312 314 315 314 313 312 312 312 314 315 314 314 314 314 313 312 312 311 310 309 308 308 307 307 306 306 305 304
184 182 182 186 187 189 195 196 198 203 205 209 215 218 218 220 222 224 225 227 230 233 238 243 247 252 256 260 265 269 271 274 277 280 282 283 285 285 286 287 288 290 292 293 294 295 296 298 300 301 302 302 301 301 301 304 308 312 315 316 317 316 315 313 313 315 317 318 319 321 321 321 321 321 320 319 318 318 317 316 316 315 315 315 314 314 314 312
188 185 186 190 192 194 198 199 201 205 207 212 218 220 219 220 223 224 227 229 232 237 241 246 250 254 259 264 268 271 273 277 280 282 283 284 285 286 287 289 291 292 294 295 296 297 299 300 302 302 302 302 302 305 308 313 316 318 318 318 317 317 316 316 318 321 322 323 324 326 326 326 325 324 323 323 323 323 323 323 322 321 321 320 320 320 320 319
191 191 191 194 196 198 201 203 205 207 210 215 220 222 221 222 224 226 229 232 236 240 245 249 253 258 263 267 271 274 276 279 281 282 283 284 285 287 289 291 293 294 295 297 298 300 301 302 302 302 303 305 310 316 319 321 321 320 319 318 319 319 321 323 324 326 327 328 329 331 330 328 326 325 326 327 327 327 326 326 325 325 325 325 325 325 325 324
194 196 197 199 200 200 203 206 209 211 214 217 220 222 223 223 225 227 230 234 238 243 247 252 256 261 265 269 273 276 279 281 282 283 283 285 287 289 291 293 294 296 298 299 301 302 302 303 304 305 308 313 319 322 322 322 320 320 319 321 323 324 326 327 327 329 331 332 332 333 331 329 328 328 329 329 329 328 327 327 328 329 329 329 328 328 327 326
198 200 202 204 204 202 204 208 211 214 217 219 221 223 225 225 226 228 231 235 240 244 249 254 258 262 265 268 271 275 279 282 283 283 285 287 289 291 292 294 297 298 300 301 302 303 303 304 307 311 318 322 323 323 322 321 322 323 323 325 326 326 327 329 330 331 333 335 335 334 332 331 331 331 330 330 329 329 329 330 332 333 332 331 331 329 328 326
201 202 204 207 207 205 206 209 212 215 219 221 223 224 226 228 229 231 234 237 242 246 250 254 258 263 267 270 273 275 278 280 282 284 286 289 291 293 295 298 300 301 301 302 303 303 304 307 313 320 325 324 323 322 322 323 325 327 327 326 325 327 329 331 331 332 335 337 337 335 333 334 334 333 332 330 330 330 332 334 335 335 334 334 333 331 328 326
204 204 205 208 209 209 209 210 212 216 218 220 224 226 227 228 231 233 237 240 244 248 252 256 261 266 270 273 276 279 280 280 282 285 288 291 294 297 299 300 301 302 302 303 304 306 310 316 321 325 324 322 322 322 322 324 327 330 329 326 326 329 330 331 333 335 337 337 336 335 336 337 336 335 332 330 330 333 336 337 337 336 336 336 334 331 329 327
206 206 207 208 209 211 212 212 213 217 220 221 222 226 228 229 230 233 237 241 246 250 254 258 264 268 271 274 278 279 280 282 284 287 290 293 297 300 301 301 302 303 303 305 308 313 319 323 324 323 322 321 321 322 324 327 331 332 329 327 329 331 331 333 337 338 336 334 334 337 339 339 338 337 333 332 334 338 339 339 337 336 337 336 334 331 329 328
208 208 209 210 208 210 212 213 214 218 222 223 224 227 229 230 233 235 239 243 247 251 255 260 265 269 272 274 276 278 280 283 286 289 293 297 300 301 302 303 304 304 305 309 315 321 323 322 322 321 320 321 323 325 329 332 333 331 329 330 332 332 333 336 337 337 335 333 336 339 340 339 340 338 336 337 340 342 341 340 337 337 337 336 334 332 331 331
209 208 210 212 208 207 211 213 214 218 222 225 227 229 231 233 235 238 241 244 249 253 257 260 264 267 271 273 276 279 282 285 288 292 297 300 302 303 304 305 304 305 309 316 322 323 321 319 319 319 321 325 327 330 332 333 330 328 328 331 332 333 336 336 335 335 336 337 339 340 340 340 340 340 341 343 345 345 344 341 339 338 338 336 335 335 334 334
211 209 211 212 208 206 210 212 213 218 222 225 228 231 234 235 237 240 243 247 251 254 256 257 259 263 267 272 277 281 284 287 291 295 300 302 303 304 306 306 305 308 315 320 322 320 317 317 318 321 325 328 329 331 332 330 327 327 330 333 335 337 338 336 334 336 339 340 340 340 341 341 341 343 346 347 347 347 346 344 342 341 339 338 337 338 338 338
215 208 208 210 207 206 210 211 212 216 221 225 229 233 235 237 239 242 245 248 252 255 256 257 259 262 267 273 277 281 284 288 293 298 302 303 305 306 306 305 306 312 318 320 318 315 314 315 319 325 329 329 330 332 330 327 328 330 333 336 339 340 339 338 338 340 341 340 340 341 343 343 343 346 348 348 348 348 347 346 345 344 342 340 340 341 341 342
217 205 203 206 204 205 209 210 212 215 220 225 229 233 236 239 242 244 248 250 253 255 257 260 262 265 269 274 277 281 284 289 295 300 302 304 306 305 303 304 311 316 317 315 312 309 309 314 321 326 327 330 332 330 327 327 330 333 336 338 341 341 340 340 342 342 340 340 341 343 343 344 345 346 347 348 348 348 348 349 348 346 344 343 342 343 344 345
217 203 200 201 199 202 207 209 212 214 217 224 229 235 240 243 244 245 247 249 252 255 258 262 265 268 271 275 278 281 286 293 299 301 303 306 305 301 302 308 313 313 311 308 307 308 313 320 323 324 327 330 327 324 326 330 334 337 338 339 340 340 341 342 342 341 341 343 345 345 346 345 346 347 348 348 349 349 350 350 350 348 346 345 345 345 346 348
212 197 194 196 194 198 204 207 212 215 218 224 229 234 241 245 245 244 245 247 252 256 259 261 262 264 269 274 278 284 291 297 300 302 305 305 301 300 307 311 310 309 307 306 309 315 322 325 325 325 324 319 316 320 330 337 340 341 340 339 338 340 342 342 341 341 344 346 346 347 347 346 346 348 348 349 349 349 350 351 351 350 348 347 347 348 349 351
198 188 189 191 191 197 201 200 204 207 214 222 226 229 236 242 241 241 244 247 251 252 253 255 257 262 268 274 281 289 295 298 301 304 304 300 298 303 310 309 305 304 302 305 313 318 320 320 321 321 318 318 324 334 339 340 339 338 338 337 336 339 341 340 341 342 343 345 346 347 347 345 347 349 349 349 348 349 351 351 352 351 350 349 350 351 352 354
189 182 182 184 188 196 197 194 196 198 201 209 216 222 230 237 239 239 240 241 245 247 249 253 258 264 271 278 286 292 296 299 303 303 300 298 301 307 309 305 302 300 302 309 314 313 313 315 318 318 320 328 337 339 337 335 334 335 336 335 335 336 338 340 342 343 342 344 345 346 346 347 350 350 349 349 348 349 351 352 352 352 351 351 352 353 354 355
183 177 175 177 187 197 199 196 198 201 203 210 219 225 232 240 245 245 241 240 243 248 253 258 263 269 276 284 290 294 298 301 301 299 297 298 303 307 306 302 299 299 303 306 307 308 312 316 317 318 324 330 332 330 331 333 335 336 335 335 335 336 339 342 343 343 342 343 345 346 348 351 352 351 349 348 349 350 351 352 352 353 353 353 353 354 355 356
178 175 173 178 190 200 203 201 203 207 212 218 225 230 236 244 247 246 244 244 247 252 257 262 268 275 282 288 292 295 298 299 297 295 296 300 304 305 303 300 297 295 296 299 303 308 313 315 316 318 322 325 326 329 333 335 336 335 336 337 338 339 341 342 342 342 342 344 346 348 351 352 352 352 350 349 349 350 351 352 352 353 354 355 355 355 356 357
176 177 177 183 192 199 204 207 209 213 217 222 228 233 241 246 244 243 246 248 252 256 261 267 274 280 286 290 293 295 296 295 293 293 297 302 304 302 301 298 295 294 297 302 308 312 313 313 315 317 319 323 327 331 334 335 335 336 339 340 341 342 342 342 343 344 345 346 348 349 350 352 352 352 351 349 350 350 351 352 352 353 354 356 356 356 356 357
177 181 182 185 191 196 203 207 211 216 223 228 234 239 242 240 239 243 249 252 256 261 267 273 279 284 287 290 292 294 294 292 291 293 299 303 303 300 298 295 293 294 298 304 307 309 310 311 313 316 320 325 329 332 334 335 336 339 341 342 342 342 343 343 344 346 348 348 349 349 349 349 351 351 351 350 350 350 350 351 352 353 355 356 356 356 357 357
180 185 188 190 195 199 204 208 213 222 232 236 241 241 236 236 239 245 250 256 262 268 273 278 282 284 286 287 290 292 291 290 291 296 301 302 300 297 294 293 294 296 299 303 305 307 308 310 313 317 322 327 330 332 333 335 338 340 341 341 342 342 343 344 345 348 350 350 349 349 347 347 349 350 351 350 350 350 350 351 352 353 355 356 356 356 357 358
177 184 190 195 200 203 207 213 220 228 233 239 245 242 234 235 241 247 255 262 268 273 277 279 281 282 284 286 289 289 287 288 293 298 300 298 296 294 294 296 297 299 302 304 306 306 307 309 313 319 324 327 329 331 333 335 338 339 340 340 341 342 343 344 345 348 351 350 348 347 347 347 348 350 350 351 350 350 350 351 352 353 354 355 355 356 357 358
175 183 190 196 202 206 210 216 222 227 231 239 248 244 235 238 246 254 263 268 271 275 276 278 279 281 284 286 287 286 284 288 294 297 296 294 293 294 295 297 299 301 302 303 305 305 306 310 315 321 324 326 328 330 333 336 337 338 339 340 340 342 342 343 344 347 349 349 347 346 346 346 347 349 351 351 351 350 350 351 352 353 354 354 355 356 358 359
180 189 194 199 204 207 210 215 221 225 231 241 249 243 237 242 250 258 265 269 271 273 274 277 280 282 284 284 283 281 282 289 294 294 293 292 292 294 295 297 299 300 301 302 303 303 306 311 317 321 323 325 329 331 334 336 336 337 338 340 341 342 342 342 343 344 346 347 346 345 345 345 346 349 351 351 351 350 350 350 351 353 353 353 355 357 358 359
183 190 195 200 205 208 211 216 219 225 235 245 245 240 240 245 252 259 264 267 269 271 275 278 280 281 282 281 279 279 285 292 294 292 292 293 294 295 296 296 297 298 299 300 300 302 307 313 318 321 324 327 330 331 334 334 335 336 337 339 341 340 341 342 342 342 343 345 345 343 344 346 346 348 350 351 351 351 350 350 352 353 353 354 355 357 357 358
187 192 198 201 206 211 215 219 223 232 241 240 234 237 243 249 255 260 264 266 270 273 277 278 279 280 279 278 279 283 290 293 293 291 291 293 295 296 295 295 295 296 297 297 299 304 311 316 320 322 325 327 329 331 332 333 334 335 337 339 339 339 340 341 341 341 341 342 344 343 343 345 346 347 348 350 351 351 349 350 352 353 353 354 355 356 356 357
192 197 201 204 209 214 219 223 230 236 235 228 232 242 249 254 258 261 264 268 272 276 277 277 277 277 275 277 283 287 292 293 292 291 291 294 296 296 296 296 297 297 298 300 304 310 315 318 321 323 325 327 329 331 331 332 333 334 336 337 337 337 339 340 340 340 339 340 343 344 343 344 346 346 347 349 351 351 350 350 352 352 353 354 355 355 355 356
196 201 204 207 212 216 221 227 231 229 225 229 240 249 254 258 260 263 267 272 275 275 275 274 273 272 272 278 284 289 292 293 292 292 293 295 296 295 294 294 296 299 303 307 312 315 318 320 322 323 325 327 329 331 331 331 332 333 334 334 335 336 338 339 340 340 339 339 342 345 344 344 345 346 346 348 349 351 351 351 351 351 352 353 354 354 354 355
197 204 207 211 215 219 223 225 224 222 226 236 246 253 257 260 263 267 271 274 274 273 273 272 271 270 273 280 286 289 292 292 292 292 293 294 293 291 291 293 298 302 307 311 314 317 319 321 322 323 324 326 329 330 330 331 331 332 333 333 333 334 335 337 339 340 341 341 342 345 345 344 344 345 345 346 348 350 351 351 350 350 351 353 353 353 353 354
199 206 211 215 218 220 219 218 219 224 231 241 250 255 259 262 267 270 274 274 272 271 271 269 269 271 275 282 287 289 291 291 291 292 291 291 290 291 293 297 302 305 309 313 316 318 320 321 321 322 324 325 327 328 329 329 330 331 331 331 331 332 333 336 338 341 343 342 341 344 345 344 343 344 344 345 347 349 351 350 349 349 350 351 351 351 353 354
201 208 212 217 218 215 213 216 222 230 237 246 253 258 262 267 271 273 274 273 270 268 266 265 267 271 276 282 286 288 290 290 290 290 290 289 289 291 295 299 302 306 310 314 316 318 318 319 321 322 323 325 326 326 328 329 329 330 331 331 332 333 335 336 338 341 344 343 341 342 344 343 343 344 344 344 345 348 350 349 348 349 349 350 350 351 352 354
204 210 215 217 214 209 212 219 227 235 243 251 256 261 266 270 273 274 273 270 268 266 263 263 267 271 277 282 285 287 289 289 289 288 288 288 289 292 296 299 302 306 310 313 315 317 318 319 321 322 323 324 325 326 328 328 329 330 331 333 334 335 335 336 336 339 342 343 341 341 343 343 343 343 343 343 344 346 348 348 347 348 348 349 350 351 352 354
205 210 212 210 207 209 215 221 230 239 247 254 259 264 268 272 274 274 271 269 266 263 262 264 268 272 278 282 285 287 288 288 288 287 287 287 289 293 296 298 301 305 309 311 314 316 318 320 321 322 323 323 324 325 326 327 328 329 330 333 335 335 335 334 334 336 339 342 340 340 342 343 342 342 342 342 343 344 346 347 347 347 347 348 349 351 352 353
202 204 203 202 205 212 217 223 231 240 248 256 262 266 270 273 274 272 270 268 265 262 263 266 269 274 278 282 285 287 287 288 288 287 287 288 290 292 295 298 300 303 306 309 312 315 317 320 321 321 322 323 323 323 324 326 327 328 329 330 333 334 334 333 333 333 336 339 340 339 340 342 341 341 342 342 343 343 345 347 347 346 346 347 349 350 352 353
197 198 199 202 207 215 221 227 234 243 252 259 264 269 272 274 273 271 269 267 263 262 264 267 271 275 279 283 285 287 287 288 288 288 288 289 290 293 295 297 299 301 304 307 310 313 316 318 320 320 321 322 322 322 323 324 326 327 328 329 330 332 333 333 332 332 334 337 340 339 339 341 341 341 342 342 343 343 344 345 346 345 345 346 348 350 351 352
195 198 201 205 212 220 227 233 240 249 257 262 266 270 272 272 271 270 268 265 262 262 264 268 272 276 279 283 286 287 288 288 288 289 289 289 291 293 295 297 299 301 303 306 309 312 314 317 318 319 320 320 322 322 322 323 324 326 327 327 328 329 331 332 332 332 334 336 339 339 339 339 340 341 342 342 342 342 343 344 344 344 344 346 348 349 351 351
196 199 204 212 221 228 233 239 247 255 260 264 267 270 271 271 269 268 266 264 262 262 265 267 271 275 279 283 285 286 287 287 288 289 290 291 292 293 295 297 298 301 303 305 308 311 313 315 317 318 319 320 321 321 322 323 324 325 325 326 327 328 330 331 331 332 333 335 338 339 338 339 340 341 341 341 341 341 341 342 343 343 344 345 347 349 349 350
201 205 213 222 227 231 237 245 252 257 261 265 269 271 271 269 268 267 266 264 263 264 266 268 271 275 279 283 285 286 286 286 288 290 291 292 293 294 295 296 298 300 303 305 308 310 313 315 316 318 319 319 320 321 321 322 323 324 325 325 326 327 329 330 331 331 332 334 337 338 337 337 339 340 340 341 340 340 340 341 342 343 344 345 346 347 348 348
207 214 221 225 229 234 241 249 255 259 263 267 270 271 270 269 268 267 266 264 264 266 267 270 272 276 280 283 285 286 287 287 288 290 292 293 294 295 295 296 298 300 303 306 308 310 312 314 316 318 319 319 320 321 322 322 323 324 324 325 326 327 328 329 331 331 331 332 335 337 336 336 337 339 340 340 339 339 340 340 342 343 343 344 345 346 347 347
216 220 223 226 232 240 248 254 258 262 266 270 271 271 270 269 269 268 267 266 267 267 270 272 274 277 281 284 286 287 287 288 289 291 293 294 296 296 297 298 300 302 304 306 308 310 312 314 315 317 319 319 320 321 322 322 323 324 324 325 326 326 327 329 330 331 331 331 333 336 336 335 336 338 339 339 338 338 339 340 341 342 342 342 343 345 345 346
222 224 226 230 239 247 253 257 261 265 269 271 272 271 270 269 269 269 268 268 269 270 272 274 276 279 282 285 286 286 287 289 290 292 294 296 297 298 300 301 302 304 306 307 309 310 312 313 314 314 316 317 317 318 320 321 322 323 324 325 325 326 327 328 328 329 330 330 331 334 336 335 335 337 338 339 338 338 339 339 340 340 341 341 342 343 344 345
226 228 230 236 245 251 255 259 264 268 271 272 272 271 270 270 270 269 268 269 271 272 274 276 278 281 283 285 285 286 287 288 290 292 294 296 298 300 301 302 304 305 306 308 309 311 312 314 315 315 315 316 317 317 319 320 322 323 323 324 324 325 326 327 327 328 330 330 330 332 335 336 335 336 338 338 338 338 338 338 338 339 339 340 340 342 344 344
227 230 235 242 249 253 257 262 266 270 272 273 272 271 271 271 271 270 270 271 272 274 276 278 280 282 284 285 285 286 287 288 290 292 294 296 298 299 301 302 304 305 306 307 309 311 313 315 316 317 317 319 320 320 321 321 322 322 322 323 324 324 325 325 326 327 329 330 330 330 332 335 335 335 337 337 337 337 338 337 336 337 338 339 340 341 343 344
228 233 240 247 251 255 259 263 267 270 272 272 272 272 272 272 272 272 272 272 273 275 277 279 281 283 284 285 286 287 288 289 290 292 294 296 297 299 300 302 303 304 306 307 309 311 314 315 317 318 318 319 320 320 320 320 321 321 322 322 323 323 324 324 325 327 327 328 329 330 330 333 335 336 336 337 336 336 336 335 334 335 337 338 339 341 342 343
231 237 244 248 252 256 260 264 268 270 271 271 272 272 273 273 273 273 273 274 275 276 278 280 282 284 285 286 287 288 289 290 291 293 295 296 298 299 301 302 304 305 307 309 310 312 314 315 316 317 317 318 319 319 319 319 320 320 321 322 322 322 322 323 324 325 326 326 328 329 330 331 335 337 336 336 336 335 335 334 333 334 336 337 339 341 342 343
235 240 245 249 253 258 262 265 268 269 270 271 272 273 274 275 275 274 274 275 277 278 280 281 283 285 286 287 288 290 291 292 294 295 297 298 300 301 303 304 305 307 308 310 311 312 313 314 315 317 317 316 318 318 318 318 319 319 320 320 321 321 322 322 322 323 324 325 326 328 330 331 334 336 336 336 335 334 333 333 333 333 335 337 339 341 342 343
238 242 247 252 256 261 264 266 268 268 270 272 274 275 276 277 277 276 277 277 278 280 281 282 284 286 287 288 290 292 293 295 296 298 299 301 302 303 305 306 307 308 309 310 311 312 313 314 314 316 316 315 316 317 317 317 317 318 318 319 320 321 321 320 320 322 323 324 325 327 329 332 334 335 336 335 333 332 332 332 332 333 335 337 339 341 341 342
243 247 252 256 259 262 265 266 267 269 271 273 275 276 278 278 278 279 279 280 280 281 282 284 285 286 288 289 291 292 294 296 298 299 300 302 303 304 305 306 307 308 309 309 311 311 312 313 314 315 315 315 315 316 316 316 316 316 317 318 319 319 319 319 319 320 323 324 325 327 329 332 333 334 335 334 331 330 331 332 333 334 336 337 339 340 341 342
248 252 255 258 261 263 264 265 268 270 273 275 277 278 280 280 280 281 281 282 282 283 284 285 286 287 289 290 292 293 295 297 298 300 301 302 303 304 306 306 307 308 309 309 310 311 312 313 313 314 314 314 314 315 316 314 314 315 316 316 317 317 318 319 318 319 322 324 325 327 329 331 332 333 334 333 331 330 331 332 333 334 336 337 339 340 340 341
Height
10723 10726 10728 10730 10733 10736 10738 10740 10744 10747 10749 10749 10748 10749 10753 10757 10760 10763 10766 10768 10770 10771 10771 10771 10771 10771 10770 10770 10771 10771 10771 10770 10771 10771 10772 10771 10771 10770 10769 10768 10767 10766 10765 10763 10762 10760 10757 10755 10753 10750 10747 10744 10741 10739 10736 10732 10728 10725 10721 10717 10714 10710 10706 10703 10699 10695 10691 10687 10684 10679 10674 10671 10668 10665 10662 10658 10653 10647 10641 10634 10627 10620 10613 10606 10598 10591 10584 10577
10724 10726 10729 10731 10733 10735 10736 10739 10743 10745 10746 10746 10746 10749 10753 10757 10760 10762 10765 10767 10768 10769 10769 10769 10769 10769 10769 10769 10769 10769 10768 10768 10769 10769 10769 10769 10768 10768 10767 10766 10765 10763 10762 10760 10758 10756 10753 10751 10749 10747 10743 10739 10735 10733 10730 10727 10723 10720 10716 10712 10709 10706 10702 10699 10695 10691 10687 10683 10680 10675 10669 10665 10661 10657 10653 10649 10644 10639 10634 10627 10620 10612 10605 10597 10590 10582 10574 10567
10725 10727 10729 10731 10733 10735 10736 10739 10741 10743 10745 10745 10746 10749 10754 10757 10759 10762 10764 10766 10766 10767 10767 10767 10767 10767 10767 10767 10768 10767 10766 10766 10767 10767 10767 10766 10766 10765 10764 10763 10762 10761 10759 10757 10754 10752 10750 10747 10745 10742 10739 10735 10731 10729 10726 10723 10720 10716 10713 10709 10705 10702 10698 10694 10692 10688 10683 10679 10676 10672 10665 10659 10653 10648 10644 10640 10635 10630 10624 10618 10610 10603 10595 10588 10580 10572 10564 10555
10725 10727 10728 10730 10733 10735 10737 10739 10741 10742 10744 10744 10746 10750 10754 10756 10758 10761 10763 10764 10765 10765 10765 10765 10765 10765 10766 10766 10766 10765 10764 10764 10765 10765 10764 10764 10763 10763 10762 10761 10759 10757 10755 10753 10751 10748 10746 10744 10741 10738 10735 10731 10727 10724 10721 10719 10716 10712 10709 10706 10702 10699 10695 10690 10687 10684 10679 10674 10670 10667 10660 10653 10647 10641 10637 10632 10627 10620 10614 10608 10601 10594 10587 10579 10571 10561 10552 10543
10726 10727 10728 10730 10733 10735 10737 10739 10740 10742 10743 10744 10746 10749 10753 10756 10758 10760 10762 10763 10763 10763 10763 10763 10763 10764 10765 10765 10763 10762 10762 10762 10763 10762 10762 10762 10761 10760 10759 10758 10756 10754 10752 10749 10747 10744 10742 10740 10738 10735 10731 10727 10724 10721 10717 10715 10711 10708 10705 10703 10700 10695 10691 10685 10681 10679 10675 10668 10663 10660 10654 10648 10642 10636 10630 10624 10618 10612 10606 10600 10594 10587 10578 10569 10560 10551 10542 10532
10725 10727 10729 10731 10733 10735 10737 10738 10740 10741 10743 10744 10746 10749 10752 10755 10757 10759 10760 10761 10761 10761 10761 10762 10762 10763 10763 10762 10761 10760 10760 10760 10760 10760 10760 10759 10758 10757 10756 10755 10753 10750 10748 10745 10743 10740 10737 10735 10733 10731 10727 10724 10721 10718 10715 10712 10709 10705 10701 10699 10696 10691 10688 10683 10676 10672 10669 10663 10657 10653 10648 10643 10637 10630 10624 10618 10612 10606 10600 10593 10586 10578 10569 10560 10551 10542 10533 10524
10725 10726 10728 10730 10733 10735 10737 10738 10740 10741 10742 10744 10746 10749 10752 10754 10756 10757 10759 10759 10760 10760 10760 10761 10761 10762 10761 10759 10758 10758 10758 10758 10758 10757 10757 10756 10756 10754 10753 10751 10749 10746 10744 10742 10739 10736 10734 10731 10729 10727 10724 10720 10718 10715 10712 10710 10706 10702 10698 10694 10692 10688 10684 10680 10673 10668 10664 10659 10652 10647 10642 10637 10631 10624 10618 10613 10607 10601 10593 10585 10577 10569 10560 10552 10543 10534 10525 10517
10724 10726 10728 10730 10732 10734 10736 10737 10739 10740 10742 10744 10746 10748 10751 10753 10754 10756 10757 10758 10758 10758 10759 10760 10760 10760 10758 10757 10756 10757 10757 10756 10755 10755 10754 10754 10753 10752 10750 10748 10745 10743 10740 10738 10735 10733 10730 10728 10726 10724 10721 10718 10715 10713 10710 10707 10704 10700 10695 10690 10687 10684 10680 10676 10671 10665 10660 10655 10648 10644 10639 10633 10627 10621 10614 10608 10602 10595 10587 10578 10570 10562 10553 10545 10536 10528 10519 10509
10723 10725 10727 10728 10731 10733 10735 10736 10737 10739 10740 10743 10745 10747 10749 10751 10753 10755 10755 10756 10756 10757 10758 10759 10759 10757 10756 10755 10754 10754 10754 10753 10753 10752 10752 10751 10750 10749 10747 10744 10742 10739 10737 10734 10732 10729 10726 10724 10723 10721 10719 10716 10713 10711 10707 10704 10701 10697 10692 10687 10683 10679 10675 10672 10667 10660 10655 10652 10647 10642 10636 10629 10624 10618 10611 10605 10598 10590 10582 10573 10565 10557 10548 10540 10531 10522 10513 10503
10722 10724 10725 10727 10729 10732 10734 10735 10737 10738 10739 10742 10744 10745 10747 10749 10751 10753 10753 10754 10755 10756 10757 10757 10756 10755 10754 10753 10753 10752 10751 10751 10750 10750 10750 10749 10748 10746 10744 10741 10738 10735 10733 10730 10728 10725 10723 10721 10720 10718 10716 10714 10711 10708 10705 10701 10698 10694 10690 10684 10678 10674 10670 10665 10661 10656 10651 10649 10645 10639 10633 10627 10621 10615 10608 10601 10593 10585 10577 10570 10562 10553 10545 10536 10527 10518 10508 10497
10721 10723 10724 10725 10728 10731 10733 10734 10736 10737 10738 10741 10743 10744 10746 10748 10750 10751 10751 10752 10753 10754 10755 10755 10754 10753 10752 10751 10750 10750 10749 10748 10748 10748 10747 10746 10745 10743 10740 10737 10735 10732 10729 10727 10725 10723 10720 10719 10717 10715 10713 10711 10708 10705 10701 10698 10694 10692 10688 10682 10675 10671 10665 10660 10657 10654 10648 10643 10639 10634 10629 10624 10617 10611 10603 10595 10587 10580 10573 10566 10558 10550 10542 10533 10524 10514 10503 10490
10719 10721 10722 10723 10726 10729 10730 10732 10735 10736 10737 10739 10741 10743 10745 10747 10748 10749 10750 10751 10752 10753 10753 10752 10751 10751 10750 10749 10748 10747 10747 10746 10746 10746 10745 10744 10742 10739 10737 10734 10731 10729 10726 10724 10722 10720 10718 10717 10715 10713 10710 10708 10705 10701 10698 10695 10692 10689 10685 10680 10675 10669 10663 10657 10654 10652 10647 10638 10633 10629 10624 10618 10612 10605 10597 10588 10582 10576 10570 10563 10555 10547 10538 10530 10519 10508 10496 10483
10718 10719 10720 10722 10724 10726 10728 10730 10733 10735 10736 10738 10740 10742 10744 10745 10746 10747 10748 10750 10751 10751 10750 10749 10749 10749 10748 10747 10746 10745 10745 10744 10744 10743 10742 10741 10738 10736 10733 10730 10728 10726 10724 10722 10720 10719 10716 10714 10712 10710 10707 10705 10701 10698 10695 10693 10689 10685 10681 10676 10670 10665 10661 10656 10651 10647 10643 10636 10629 10624 10619 10612 10605 10599 10591 10583 10577 10572 10565 10558 10550 10541 10533 10524 10513 10502 10489 10477
10715 10717 10718 10720 10723 10725 10726 10729 10732 10734 10735 10738 10739 10741 10742 10743 10744 10746 10747 10748 10748 10748 10748 10747 10747 10747 10746 10745 10744 10743 10743 10742 10742 10741 10740 10738 10735 10733 10730 10727 10725 10723 10722 10720 10719 10717 10715 10713 10710 10707 10705 10702 10698 10695 10692 10689 10685 10681 10677 10672 10666 10662 10658 10653 10647 10642 10637 10633 10626 10620 10614 10607 10599 10593 10587 10580 10574 10568 10561 10553 10544 10535 10526 10516 10506 10495 10483 10471
10714 10714 10716 10718 10721 10724 10726 10728 10731 10733 10735 10737 10738 10739 10740 10742 10743 10745 10746 10746 10746 10746 10745 10745 10745 10745 10744 10743 10742 10741 10741 10741 10740 10739 10737 10735 10732 10730 10727 10725 10723 10721 10720 10719 10717 10716 10714 10712 10709 10706 10703 10699 10695 10692 10688 10685 10681 10677 10673 10669 10665 10659 10655 10650 10644 10638 10633 10628 10623 10617 10610 10604 10596 10589 10583 10577 10571 10564 10556 10547 10538 10529 10520 10509 10499 10489 10478 10466
10711 10712 10714 10717 10720 10723 10725 10728 10730 10732 10735 10736 10737 10738 10739 10740 10742 10744 10744 10744 10744 10744 10744 10744 10743 10743 10742 10741 10740 10739 10739 10739 10738 10736 10734 10732 10730 10727 10725 10722 10720 10719 10718 10717 10715 10713 10711 10709 10706 10704 10701 10698 10694 10690 10685 10681 10677 10673 10669 10667 10664 10658 10651 10646 10640 10635 10630 10623 10618 10612 10606 10600 10592 10584 10579 10573 10567 10559 10550 10542 10532 10523 10513 10503 10493 10481 10470 10458
10709 10711 10715 10717 10720 10722 10725 10727 10729 10731 10734 10735 10736 10738 10738 10739 10740 10742 10741 10742 10742 10742 10742 10742 10741 10740 10740 10739 10738 10738 10737 10736 10735 10733 10731 10729 10727 10725 10723 10720 10719 10717 10716 10714 10713 10710 10708 10706 10703 10700 10698 10695 10693 10688 10682 10677 10673 10669 10665 10662 10660 10656 10649 10644 10638 10631 10626 10620 10613 10607 10601 10595 10586 10579 10574 10568 10561 10554 10545 10536 10526 10516 10507 10497 10486 10474 10461 10449
10708 10711 10714 10717 10720 10722 10724 10727 10729 10731 10733 10734 10735 10736 10737 10737 10739 10739 10739 10740 10740 10740 10740 10740 10739 10738 10737 10737 10736 10736 10735 10734 10732 10730 10728 10726 10724 10722 10720 10719 10717 10716 10714 10712 10711 10709 10707 10704 10701 10698 10694 10690 10686 10682 10679 10676 10672 10668 10664 10659 10655 10652 10648 10642 10637 10629 10623 10618 10611 10605 10599 10591 10583 10576 10570 10563 10556 10548 10539 10530 10521 10511 10501 10492 10480 10468 10455 10444
10706 10709 10713 10716 10719 10722 10724 10727 10729 10730 10732 10733 10734 10735 10735 10736 10737 10737 10738 10738 10738 10738 10738 10737 10737 10736 10735 10735 10734 10733 10732 10731 10729 10727 10726 10724 10722 10720 10719 10717 10716 10714 10713 10711 10709 10707 10705 10702 10699 10695 10691 10687 10683 10681 10678 10675 10671 10667 10663 10658 10652 10649 10646 10640 10634 10628 10620 10614 10607 10601 10595 10586 10580 10573 10566 10559 10551 10542 10534 10524 10516 10507 10497 10486 10474 10463 10451 10439
10705 10709 10712 10716 10719 10721 10723 10725 10727 10729 10730 10731 10732 10733 10734 10734 10735 10735 10736 10736 10736 10736 10736 10735 10735 10734 10734 10733 10732 10731 10729 10728 10726 10725 10723 10722 10720 10718 10717 10715 10714 10712 10711 10709 10707 10705 10702 10699 10696 10693 10689 10686 10683 10680 10677 10672 10668 10664 10660 10656 10650 10645 10641 10636 10630 10624 10617 10610 10603 10596 10589 10581 10575 10569 10561 10554 10546 10537 10528 10520 10511 10502 10493 10482 10470 10458 10446 10434
10704 10708 10711 10716 10719 10721 10722 10724 10725 10727 10728 10729 10730 10731 10733 10733 10733 10733 10734 10734 10734 10734 10734 10733 10733 10732 10732 10731 10729 10728 10727 10725 10724 10722 10721 10719 10718 10717 10715 10714 10713 10711 10710 10708 10705 10703 10700 10697 10694 10691 10687 10685 10682 10678 10674 10670 10665 10661 10656 10652 10647 10640 10635 10632 10628 10621 10613 10606 10598 10589 10583 10577 10570 10564 10557 10549 10541 10532 10523 10515 10506 10498 10489 10478 10466 10454 10442 10431
10704 10707 10711 10714 10717 10719 10721 10723 10724 10725 10727 10728 10729 10731 10732 10732 10731 10731 10732 10732 10733 10732 10732 10732 10731 10730 10729 10728 10727 10726 10725 10723 10722 10720 10719 10717 10716 10715 10714 10712 10711 10710 10708 10706 10703 10700 10697 10694 10691 10688 10685 10682 10678 10675 10671 10667 10663 10658 10652 10647 10643 10638 10631 10626 10622 10617 10610 10602 10593 10584 10578 10574 10567 10560 10553 10545 10536 10527 10518 10510 10502 10494 10484 10473 10462 10450 10439 10428
10703 10707 10710 10713 10716 10718 10720 10721 10723 10724 10726 10727 10729 10730 10730 10730 10730 10730 10730 10731 10731 10731 10730 10730 10729 10728 10727 10726 10725 10724 10722 10721 10719 10718 10717 10716 10714 10713 10712 10711 10710 10708 10706 10704 10701 10698 10695 10692 10689 10686 10682 10679 10675 10671 10668 10664 10659 10654 10649 10644 10639 10635 10630 10623 10617 10612 10606 10598 10591 10583 10575 10570 10564 10556 10549 10540 10531 10522 10514 10506 10498 10488 10477 10466 10457 10448 10438 10427
10703 10707 10710 10713 10715 10717 10719 10720 10722 10724 10725 10726 10728 10728 10728 10728 10728 10728 10729 10730 10729 10729 10728 10727 10726 10725 10725 10724 10723 10722 10720 10719 10718 10716 10715 10714 10713 10712 10711 10710 10708 10707 10705 10702 10700 10697 10693 10690 10687 10683 10679 10676 10672 10668 10663 10660 10655 10651 10646 10641 10635 10630 10626 10621 10615 10608 10601 10593 10588 10583 10576 10568 10561 10554 10546 10536 10527 10518 10510 10502 10492 10482 10471 10461 10453 10445 10435 10424
10703 10707 10710 10712 10714 10716 10718 10720 10721 10723 10724 10725 10726 10726 10727 10727 10727 10727 10728 10728 10727 10727 10726 10725 10724 10723 10723 10722 10721 10719 10718 10717 10716 10714 10713 10712 10711 10710 10709 10707 10706 10704 10702 10700 10697 10695 10692 10688 10685 10681 10677 10673 10669 10665 10660 10655 10651 10648 10643 10638 10633 10627 10620 10616 10611 10604 10597 10591 10585 10581 10576 10567 10559 10551 10542 10533 10523 10515 10506 10497 10487 10477 10467 10459 10451 10441 10429 10417
10703 10707 10709 10712 10713 10715 10717 10719 10720 10722 10723 10724 10725 10725 10725 10725 10725 10726 10726 10726 10725 10725 10724 10723 10722 10721 10721 10720 10719 10718 10717 10715 10714 10713 10712 10711 10710 10708 10707 10705 10704 10702 10700 10698 10695 10693 10690 10687 10683 10679 10676 10672 10667 10662 10657 10652 10647 10644 10639 10634 10628 10622 10616 10610 10605 10600 10595 10589 10582 10577 10572 10565 10557 10548 10538 10530 10521 10512 10502 10493 10484 10475 10466 10457 10447 10435 10423 10410
10704 10707 10709 10711 10713 10715 10716 10718 10719 10720 10722 10723 10723 10723 10723 10724 10724 10725 10725 10724 10723 10723 10722 10721 10720 10719 10719 10718 10717 10716 10715 10714 10713 10711 10710 10709 10708 10706 10705 10703 10701 10699 10698 10695 10693 10691 10688 10685 10681 10678 10674 10669 10665 10660 10654 10649 10644 10639 10635 10631 10624 10618 10612 10605 10599 10594 10591 10586 10579 10572 10566 10559 10551 10544 10535 10526 10518 10509 10500 10492 10482 10472 10463 10453 10441 10428 10416 10406
10704 10707 10709 10711 10713 10714 10715 10716 10718 10720 10721 10722 10722 10722 10722 10722 10723 10723 10723 10722 10722 10721 10720 10719 10718 10717 10717 10716 10715 10714 10713 10712 10711 10710 10708 10707 10706 10704 10703 10701 10699 10697 10695 10693 10691 10688 10686 10683 10679 10675 10671 10667 10662 10658 10653 10648 10643 10637 10632 10627 10622 10616 10610 10603 10595 10589 10586 10583 10576 10567 10561 10554 10544 10536 10530 10522 10514 10506 10497 10489 10479 10468 10458 10446 10433 10422 10413 10404
10704 10707 10709 10711 10712 10713 10715 10716 10718 10719 10720 10721 10720 10720 10721 10721 10721 10721 10721 10721 10720 10719 10718 10717 10716 10716 10715 10715 10714 10713 10711 10710 10709 10708 10707 10705 10704 10703 10701 10699 10697 10695 10693 10691 10688 10686 10683 10680 10676 10673 10668 10664 10660 10656 10652 10647 10642 10636 10629 10623 10618 10614 10608 10601 10594 10586 10581 10579 10574 10563 10555 10549 10541 10532 10524 10517 10509 10502 10493 10483 10472 10462 10452 10440 10429 10420 10412 10403
10704 10706 10708 10709 10711 10712 10714 10716 10718 10719 10719 10719 10719 10719 10720 10720 10720 10720 10720 10719 10718 10717 10716 10715 10715 10714 10714 10713 10712 10711 10710 10709 10708 10706 10705 10704 10702 10700 10698 10696 10694 10692 10690 10688 10685 10683 10679 10676 10673 10669 10666 10662 10658 10653 10649 10645 10640 10634 10629 10623 10617 10612 10606 10600 10592 10584 10577 10573 10570 10560 10548 10540 10535 10527 10519 10512 10504 10496 10487 10477 10466 10457 10447 10437 10427 10419 10412 10404
10703 10704 10706 10708 10710 10711 10714 10716 10717 10718 10718 10718 10718 10718 10719 10719 10719 10718 10718 10717 10716 10715 10714 10714 10713 10713 10712 10712 10710 10709 10708 10707 10706 10704 10703 10702 10700 10698 10696 10694 10692 10690 10687 10684 10681 10679 10676 10673 10669 10665 10662 10659 10655 10650 10646 10641 10637 10632 10627 10622 10616 10610 10604 10599 10591 10583 10573 10565 10562 10556 10544 10533 10526 10520 10513 10506 10499 10491 10482 10471 10462 10454 10446 10436 10427 10419 10411 10402
10701 10703 10705 10707 10709 10711 10713 10715 10716 10717 10717 10717 10717 10717 10717 10717 10717 10717 10716 10715 10714 10713 10713 10712 10711 10711 10711 10710 10709 10708 10706 10705 10704 10703 10701 10700 10698 10696 10695 10693 10690 10688 10685 10682 10678 10675 10672 10669 10666 10662 10658 10655 10651 10647 10642 10638 10633 10628 10623 10618 10613 10608 10603 10598 10592 10583 10570 10559 10553 10550 10542 10531 10522 10515 10508 10501 10494 10486 10477 10469 10461 10453 10444 10435 10427 10419 10410 10399
10700 10703 10705 10706 10709 10711 10713 10714 10715 10715 10716 10716 10716 10716 10716 10716 10715 10715 10714 10713 10712 10711 10711 10710 10710 10709 10709 10708 10707 10706 10704 10703 10702 10700 10699 10698 10696 10694 10692 10690 10688 10685 10683 10680 10676 10673 10669 10666 10662 10659 10655 10651 10647 10644 10640 10635 10630 10625 10620 10615 10610 10604 10599 10593 10589 10583 10572 10558 10548 10544 10539 10530 10521 10513 10505 10498 10490 10482 10475 10467 10460 10451 10442 10434 10426 10418 10407 10395
10700 10702 10704 10706 10708 10710 10712 10713 10714 10714 10715 10715 10715 10714 10714 10714 10714 10713 10712 10711 10710 10710 10709 10709 10708 10708 10707 10706 10705 10704 10703 10701 10700 10698 10697 10695 10694 10692 10690 10688 10686 10683 10680 10677 10674 10670 10667 10663 10659 10655 10651 10647 10643 10639 10635 10631 10626 10621 10615 10610 10603 10596 10590 10584 10579 10576 10570 10559 10548 10542 10537 10528 10520 10512 10503 10495 10487 10479 10473 10465 10457 10448 10439 10432 10424 10414 10403 10390
10699 10701 10704 10706 10708 10710 10711 10712 10713 10713 10713 10713 10713 10713 10713 10712 10711 10711 10710 10709 10708 10708 10707 10707 10706 10706 10705 10704 10703 10702 10701 10699 10698 10696 10695 10693 10691 10690 10688 10685 10683 10680 10677 10674 10670 10667 10663 10660 10655 10651 10647 10643 10638 10634 10630 10625 10621 10617 10611 10605 10598 10591 10585 10579 10572 10568 10565 10558 10547 10542 10537 10526 10516 10509 10500 10492 10484 10476 10470 10462 10453 10445 10436 10428 10420 10409 10398 10387
10699 10701 10703 10705 10707 10709 10710 10711 10712 10712 10712 10712 10712 10711 10711 10710 10710 10709 10708 10707 10707 10706 10705 10705 10704 10704 10703 10702 10701 10700 10699 10697 10696 10694 10692 10691 10689 10687 10685 10682 10679 10677 10674 10670 10667 10663 10659 10655 10651 10647 10642 10637 10633 10628 10624 10620 10615 10610 10606 10600 10594 10587 10581 10576 10571 10565 10561 10555 10542 10534 10533 10527 10516 10508 10499 10490 10482 10473 10465 10458 10449 10440 10432 10424 10415 10404 10394 10383
10699 10701 10703 10705 10707 10708 10709 10710 10710 10711 10711 10710 10710 10709 10709 10708 10708 10707 10706 10705 10705 10704 10704 10703 10702 10702 10701 10700 10699 10698 10696 10695 10693 10691 10690 10688 10686 10684 10682 10679 10676 10673 10670 10667 10664 10660 10656 10651 10647 10642 10638 10633 10628 10622 10618 10613 10608 10604 10599 10595 10590 10584 10577 10570 10566 10562 10558 10554 10542 10528 10524 10522 10514 10505 10497 10487 10478 10469 10460 10452 10444 10436 10428 10419 10410 10400 10390 10380
10698 10700 10702 10704 10706 10707 10708 10709 10709 10709 10709 10709 10708 10708 10707 10706 10706 10705 10704 10704 10703 10703 10702 10701 10700 10700 10699 10698 10697 10695 10694 10692 10690 10689 10687 10685 10683 10680 10678 10676 10673 10670 10667 10664 10660 10656 10652 10648 10643 10638 10634 10629 10624 10618 10613 10608 10602 10597 10592 10588 10584 10579 10572 10564 10557 10554 10551 10548 10542 10528 10518 10514 10508 10499 10491 10481 10473 10464 10455 10447 10440 10432 10424 10414 10405 10395 10385 10376
10698 10700 10702 10704 10705 10706 10707 10707 10708 10708 10708 10707 10707 10706 10705 10704 10704 10703 10702 10702 10701 10701 10700 10699 10699 10698 10697 10696 10694 10693 10691 10690 10688 10686 10684 10682 10679 10677 10675 10672 10669 10666 10663 10660 10657 10653 10649 10645 10640 10635 10631 10627 10621 10615 10609 10604 10598 10593 10588 10583 10579 10574 10569 10561 10550 10544 10540 10537 10533 10525 10515 10509 10502 10493 10485 10477 10468 10460 10451 10443 10436 10428 10419 10409 10399 10390 10380 10372
10698 10700 10701 10703 10704 10705 10705 10706 10706 10706 10706 10705 10705 10704 10703 10702 10702 10701 10701 10700 10700 10699 10698 10697 10696 10695 10694 10693 10692 10691 10689 10687 10685 10683 10681 10679 10676 10674 10671 10669 10666 10663 10660 10656 10653 10650 10645 10641 10637 10632 10627 10622 10619 10613 10607 10601 10595 10589 10584 10578 10574 10569 10565 10558 10547 10537 10532 10528 10524 10516 10507 10501 10495 10486 10479 10471 10464 10456 10448 10441 10433 10423 10414 10404 10394 10385 10376 10369
10698 10699 10701 10702 10703 10704 10704 10705 10705 10704 10704 10703 10703 10702 10701 10700 10700 10699 10699 10698 10698 10697 10696 10696 10695 10693 10692 10691 10689 10688 10686 10685 10683 10680 10678 10676 10673 10671 10668 10665 10663 10659 10656 10653 10649 10646 10642 10637 10633 10629 10623 10617 10614 10610 10603 10597 10591 10584 10579 10573 10568 10563 10558 10554 10546 10535 10526 10522 10518 10510 10500 10494 10490 10483 10475 10467 10460 10453 10446 10437 10429 10418 10409 10400 10391 10382 10374 10366
10697 10699 10700 10701 10702 10702 10703 10703 10703 10703 10702 10702 10701 10700 10699 10699 10698 10697 10697 10696 10696 10695 10694 10693 10693 10691 10690 10688 10687 10685 10683 10681 10679 10677 10675 10673 10670 10667 10664 10662 10659 10655 10652 10648 10645 10641 10638 10634 10629 10624 10619 10612 10608 10605 10599 10593 10588 10580 10574 10568 10563 10557 10552 10546 10540 10532 10522 10514 10512 10508 10497 10487 10484 10478 10470 10463 10455 10448 10442 10432 10422 10413 10403 10395 10388 10380 10372 10364
10697 10698 10699 10700 10701 10701 10701 10701 10701 10701 10700 10700 10699 10698 10698 10697 10696 10695 10695 10694 10694 10693 10692 10691 10690 10689 10687 10686 10684 10682 10680 10678 10676 10674 10672 10669 10666 10664 10661 10658 10655 10651 10648 10644 10640 10637 10634 10631 10626 10621 10617 10609 10601 10599 10594 10588 10583 10577 10570 10563 10557 10552 10547 10541 10535 10528 10519 10508 10504 10504 10495 10482 10475 10471 10464 10458 10450 10441 10434 10426 10417 10408 10399 10391 10384 10377 10369 10361
10696 10697 10698 10699 10699 10700 10700 10700 10699 10699 10698 10698 10697 10696 10695 10695 10694 10693 10693 10692 10691 10691 10690 10689 10688 10686 10685 10683 10681 10679 10677 10675 10673 10670 10668 10666 10663 10660 10657 10654 10650 10647 10643 10640 10636 10631 10628 10625 10621 10617 10616 10611 10602 10597 10593 10586 10579 10573 10566 10559 10552 10546 10541 10537 10531 10525 10518 10507 10497 10497 10493 10479 10466 10461 10456 10449 10443 10435 10427 10420 10412 10405 10397 10389 10382 10375 10367 10358
10695 10696 10697 10697 10698 10698 10698 10698 10697 10697 10696 10695 10695 10694 10693 10693 10692 10691 10691 10690 10689 10688 10687 10686 10685 10684 10682 10680 10678 10676 10674 10672 10670 10667 10664 10662 10659 10656 10653 10650 10646 10643 10639 10635 10631 10626 10621 10618 10614 10608 10607 10605 10599 10592 10589 10583 10575 10568 10561 10555 10547 10540 10534 10529 10524 10518 10513 10505 10492 10486 10488 10483 10469 10458 10451 10443 10437 10431 10423 10415 10408 10401 10394 10387 10379 10372 10364 10355
10694 10695 10696 10696 10696 10696 10696 10696 10695 10695 10694 10693 10692 10692 10691 10690 10690 10689 10688 10687 10687 10686 10685 10683 10682 10681 10679 10677 10675 10673 10671 10668 10666 10664 10661 10658 10655 10652 10649 10645 10642 10638 10635 10631 10627 10622 10617 10612 10607 10600 10595 10594 10589 10580 10577 10573 10568 10562 10555 10548 10541 10534 10526 10521 10516 10510 10505 10501 10492 10479 10476 10478 10472 10460 10452 10444 10436 10428 10421 10412 10405 10398 10391 10384 10376 10369 10361 10352
10693 10694 10694 10694 10694 10694 10694 10693 10693 10692 10691 10691 10690 10689 10689 10688 10687 10687 10686 10685 10684 10683 10682 10680 10679 10677 10676 10674 10672 10670 10667 10665 10663 10660 10657 10654 10651 10648 10644 10641 10638 10634 10630 10627 10623 10619 10614 10608 10603 10595 10587 10586 10583 10575 10568 10564 10560 10555 10549 10542 10535 10528 10520 10513 10508 10502 10496 10493 10490 10480 10468 10465 10464 10456 10447 10441 10433 10426 10419 10410 10402 10395 10388 10381 10374 10365 10357 10348
10691 10692 10692 10692 10692 10692 10691 10691 10690 10690 10689 10688 10688 10687 10686 10686 10685 10684 10683 10682 10681 10680 10679 10677 10676 10674 10672 10670 10668 10666 10664 10661 10659 10656 10653 10650 10647 10644 10640 10636 10633 10629 10625 10622 10618 10614 10611 10605 10600 10593 10582 10577 10576 10571 10562 10557 10551 10546 10542 10536 10530 10522 10515 10507 10501 10497 10491 10484 10481 10478 10468 10458 10454 10450 10441 10433 10427 10421 10415 10407 10398 10392 10385 10377 10370 10361 10352 10343
10690 10690 10690 10690 10690 10689 10689 10688 10688 10687 10687 10686 10685 10685 10684 10683 10682 10681 10680 10679 10678 10677 10676 10674 10672 10671 10669 10667 10665 10662 10660 10657 10655 10652 10649 10646 10643 10640 10636 10632 10628 10624 10620 10617 10613 10609 10606 10601 10596 10592 10581 10571 10568 10564 10556 10550 10544 10538 10533 10529 10524 10518 10509 10502 10495 10491 10487 10481 10474 10471 10467 10457 10449 10443 10437 10429 10422 10415 10409 10403 10394 10387 10381 10373 10365 10357 10347 10338
10688 10688 10688 10688 10688 10687 10687 10686 10686 10685 10685 10684 10683 10682 10681 10680 10680 10678 10677 10676 10675 10674 10672 10671 10669 10667 10665 10663 10661 10659 10656 10653 10651 10648 10645 10641 10638 10634 10631 10626 10623 10619 10614 10611 10607 10602 10600 10596 10592 10590 10582 10569 10563 10559 10551 10543 10538 10533 10527 10522 10517 10512 10504 10495 10489 10485 10482 10477 10469 10463 10460 10457 10449 10441 10433 10424 10416 10409 10403 10398 10390 10382 10375 10368 10360 10352 10343 10334
10686 10686 10686 10686 10685 10685 10684 10684 10683 10683 10682 10681 10680 10679 10678 10677 10677 10675 10674 10673 10672 10671 10669 10667 10666 10664 10661 10659 10657 10654 10652 10649 10646 10643 10640 10637 10633 10629 10626 10621 10617 10613 10608 10604 10601 10597 10593 10590 10585 10584 10580 10569 10560 10557 10549 10538 10532 10528 10523 10517 10511 10505 10500 10490 10480 10476 10474 10470 10464 10458 10453 10449 10445 10439 10431 10421 10410 10402 10397 10392 10385 10378 10370 10362 10354 10347 10338 10329
10684 10684 10684 10684 10683 10682 10682 10682 10681 10681 10680 10679 10678 10677 10675 10674 10673 10672 10671 10669 10668 10667 10665 10663 10662 10660 10657 10655 10653 10650 10648 10645 10642 10639 10635 10632 10628 10624 10621 10616 10611 10607 10602 10598 10595 10591 10586 10583 10579 10576 10575 10568 10557 10552 10547 10536 10527 10524 10519 10512 10507 10501 10496 10487 10473 10467 10467 10462 10456 10452 10446 10441 10437 10431 10426 10418 10407 10397 10391 10386 10381 10373 10366 10358 10349 10342 10334 10325